User: anonymous   Login
Location: Noordwijk
(52.2400°N, 4.4500°E)
Time: 23:41:11
(UTC+00:00)
Language:

M-CUBED/EXP-1 PRIME - Orbit

View from above orbital plane
View from above orbital plane
View from above satellite
View from above satellite

Ground track
Ground track

The orbit data is extracted from the following two-line orbital elements,

1 37855U 11061F   23344.78015699  .00030521  00000-0  67321-3 0  9991
2 37855 101.6968  48.0893 0092681 214.9800 144.5319 15.39375230664071
Epoch (UTC): 10 December 2023 18:43:25
Eccentricity: 0.0092681
inclination: 101.6968°
perigee height: 384 km
apogee height: 511 km
right ascension of ascending node: 48.0893°
argument of perigee: 214.9800°
revolutions per day: 15.39375230
mean anomaly at epoch: 144.5319°
orbit number at epoch: 66407

The dashed part of the orbit path shows where the satellite is in the earth's shadow,  

DLR